Time,TemperatureF,DewpointF,PressureIn,WindDirection,WindDirectionDegrees,WindSpeedMPH,WindSpeedGustMPH,Humidity,HourlyPrecipIn,Conditions,Clouds,dailyrainin,SolarRadiationWatts/m^2,SoftwareType,DateUTC
2013-02-01 00:02:00,35.4,24.8,30.19,SE,133,1.0,1.0,65,0.00,,,0.00,0,Wunderground v.1.15,2013-02-01 07:02:00,
2013-02-01 00:08:00,35.0,24.8,30.19,SE,133,0.0,1.0,66,0.00,,,0.00,0,Wunderground v.1.15,2013-02-01 07:08:00,
2013-02-01 00:14:00,34.7,24.5,30.19,SE,133,0.0,0.0,66,0.00,,,0.00,0,Wunderground v.1.15,2013-02-01 07:14:00,
2013-02-01 00:20:00,34.4,24.6,30.19,SE,133,0.0,1.0,67,0.00,,,0.00,0,Wunderground v.1.15,2013-02-01 07:20:00,
2013-02-01 00:26:00,33.8,24.7,30.19,SE,133,1.0,2.0,69,0.00,,,0.00,0,Wunderground v.1.15,2013-02-01 07:26:00,
2013-02-01 00:32:00,33.2,24.5,30.19,SE,133,2.0,2.0,70,0.00,,,0.00,0,Wunderground v.1.15,2013-02-01 07:32:00,
2013-02-01 00:38:00,32.8,24.8,30.19,SE,133,2.0,2.0,72,0.00,,,0.00,0,Wunderground v.1.15,2013-02-01 07:38:00,
2013-02-01 00:44:00,32.6,24.6,30.19,SE,133,1.0,1.0,72,0.00,,,0.00,0,Wunderground v.1.15,2013-02-01 07:44:00,
2013-02-01 00:50:00,32.4,24.7,30.19,SE,133,0.0,0.0,73,0.00,,,0.00,0,Wunderground v.1.15,2013-02-01 07:50:00,
2013-02-01 00:56:00,32.3,24.6,30.19,SE,133,0.0,0.0,73,0.00,,,0.00,0,Wunderground v.1.15,2013-02-01 07:56:00,
2013-02-01 01:02:00,32.3,24.6,30.19,SE,133,0.0,0.0,73,0.00,,,0.00,0,Wunderground v.1.15,2013-02-01 08:02:00,
2013-02-01 01:08:00,32.2,24.8,30.19,SE,133,1.0,2.0,74,0.00,,,0.00,0,Wunderground v.1.15,2013-02-01 08:08:00,
2013-02-01 01:14:00,32.1,25.1,30.20,SE,133,1.0,3.0,75,0.00,,,0.00,0,Wunderground v.1.15,2013-02-01 08:14:00,
2013-02-01 01:20:00,32.1,25.1,30.20,SE,133,1.0,1.0,75,0.00,,,0.00,0,Wunderground v.1.15,2013-02-01 08:20:00,
2013-02-01 01:26:00,32.6,24.9,30.20,SE,133,0.0,1.0,73,0.00,,,0.00,0,Wunderground v.1.15,2013-02-01 08:26:00,
2013-02-01 01:32:00,32.9,24.9,30.20,SE,133,0.0,0.0,72,0.00,,,0.00,0,Wunderground v.1.15,2013-02-01 08:32:00,
2013-02-01 01:38:00,33.1,25.1,30.20,SE,133,0.0,0.0,72,0.00,,,0.00,0,Wunderground v.1.15,2013-02-01 08:38:00,
2013-02-01 01:44:00,33.1,25.1,30.19,SE,133,0.0,0.0,72,0.00,,,0.00,0,Wunderground v.1.15,2013-02-01 08:44:00,
2013-02-01 01:50:00,32.9,24.9,30.19,SE,133,0.0,0.0,72,0.00,,,0.00,0,Wunderground v.1.15,2013-02-01 08:50:00,
2013-02-01 01:56:00,32.7,24.7,30.19,SE,133,0.0,0.0,72,0.00,,,0.00,0,Wunderground v.1.15,2013-02-01 08:56:00,
2013-02-01 02:02:00,32.4,24.4,30.19,SE,133,0.0,1.0,72,0.00,,,0.00,0,Wunderground v.1.15,2013-02-01 09:02:00,
2013-02-01 02:08:00,32.3,24.6,30.19,SE,133,0.0,1.0,73,0.00,,,0.00,0,Wunderground v.1.15,2013-02-01 09:08:00,
2013-02-01 02:14:00,32.1,24.4,30.19,SE,133,0.0,0.0,73,0.00,,,0.00,0,Wunderground v.1.15,2013-02-01 09:14:00,
2013-02-01 02:19:00,32.0,24.3,30.19,SE,133,0.0,0.0,73,0.00,,,0.00,0,Wunderground v.1.15,2013-02-01 09:19:00,
2013-02-01 02:26:00,31.8,24.5,30.19,SE,133,0.0,1.0,74,0.00,,,0.00,0,Wunderground v.1.15,2013-02-01 09:26:00,
2013-02-01 02:32:00,31.7,24.4,30.19,SE,133,1.0,3.0,74,0.00,,,0.00,0,Wunderground v.1.15,2013-02-01 09:32:00,
2013-02-01 02:38:00,31.5,24.2,30.19,SE,133,2.0,3.0,74,0.00,,,0.00,0,Wunderground v.1.15,2013-02-01 09:38:00,
2013-02-01 02:44:00,31.4,24.1,30.19,SE,133,3.0,4.0,74,0.00,,,0.00,0,Wunderground v.1.15,2013-02-01 09:44:00,
2013-02-01 02:50:00,31.3,24.0,30.20,SE,133,2.0,2.0,74,0.00,,,0.00,0,Wunderground v.1.15,2013-02-01 09:50:00,
2013-02-01 02:56:00,31.2,23.9,30.20,SE,133,1.0,2.0,74,0.00,,,0.00,0,Wunderground v.1.15,2013-02-01 09:56:00,
2013-02-01 03:02:00,31.2,23.5,30.19,SE,133,0.0,0.0,73,0.00,,,0.00,0,Wunderground v.1.15,2013-02-01 10:02:00,
2013-02-01 03:08:00,31.2,23.9,30.20,SE,133,1.0,2.0,74,0.00,,,0.00,0,Wunderground v.1.15,2013-02-01 10:08:00,
2013-02-01 03:14:00,31.1,23.5,30.20,SE,133,1.0,1.0,73,0.00,,,0.00,0,Wunderground v.1.15,2013-02-01 10:14:00,
2013-02-01 03:20:00,31.0,23.4,30.19,SE,133,1.0,2.0,73,0.00,,,0.00,0,Wunderground v.1.15,2013-02-01 10:20:00,
2013-02-01 03:26:00,31.0,23.4,30.19,SE,133,1.0,2.0,73,0.00,,,0.00,0,Wunderground v.1.15,2013-02-01 10:26:00,
2013-02-01 03:32:00,31.0,23.4,30.19,SE,133,0.0,0.0,73,0.00,,,0.00,0,Wunderground v.1.15,2013-02-01 10:32:00,
2013-02-01 03:38:00,31.0,23.0,30.20,SE,133,0.0,0.0,72,0.00,,,0.00,0,Wunderground v.1.15,2013-02-01 10:38:00,
2013-02-01 03:46:00,31.0,23.4,30.20,SE,133,0.0,3.0,73,0.00,,,0.00,0,Wunderground v.1.15,2013-02-01 10:46:00,
2013-02-01 03:52:00,31.0,23.0,30.19,SE,133,1.0,2.0,72,0.00,,,0.00,0,Wunderground v.1.15,2013-02-01 10:52:00,
2013-02-01 03:58:00,31.0,23.0,30.19,SE,133,2.0,2.0,72,0.00,,,0.00,0,Wunderground v.1.15,2013-02-01 10:58:00,
2013-02-01 04:04:00,31.0,23.0,30.19,SE,133,0.0,1.0,72,0.00,,,0.00,0,Wunderground v.1.15,2013-02-01 11:04:00,
2013-02-01 04:10:00,30.9,22.9,30.19,SE,133,0.0,3.0,72,0.00,,,0.00,0,Wunderground v.1.15,2013-02-01 11:10:00,
2013-02-01 04:16:00,31.0,22.7,30.19,SE,133,1.0,3.0,71,0.00,,,0.00,0,Wunderground v.1.15,2013-02-01 11:16:00,
2013-02-01 04:22:00,31.0,23.0,30.19,SE,133,0.0,0.0,72,0.00,,,0.00,0,Wunderground v.1.15,2013-02-01 11:22:00,
2013-02-01 04:28:00,30.9,22.9,30.19,SE,133,0.0,0.0,72,0.00,,,0.00,0,Wunderground v.1.15,2013-02-01 11:28:00,
2013-02-01 04:34:00,31.0,22.7,30.19,SE,133,0.0,0.0,71,0.00,,,0.00,0,Wunderground v.1.15,2013-02-01 11:34:00,
2013-02-01 04:40:00,31.2,22.9,30.19,SE,133,0.0,0.0,71,0.00,,,0.00,0,Wunderground v.1.15,2013-02-01 11:40:00,
2013-02-01 04:46:00,31.4,23.1,30.19,SE,133,0.0,0.0,71,0.00,,,0.00,0,Wunderground v.1.15,2013-02-01 11:46:00,
2013-02-01 04:52:00,31.3,23.0,30.19,SE,133,0.0,0.0,71,0.00,,,0.00,0,Wunderground v.1.15,2013-02-01 11:52:00,
2013-02-01 04:58:00,31.1,22.8,30.20,SE,133,1.0,3.0,71,0.00,,,0.00,0,Wunderground v.1.15,2013-02-01 11:58:00,
2013-02-01 05:04:00,30.8,22.5,30.20,SE,133,2.0,3.0,71,0.00,,,0.00,0,Wunderground v.1.15,2013-02-01 12:04:00,
2013-02-01 05:10:00,30.6,22.3,30.19,SE,133,1.0,1.0,71,0.00,,,0.00,0,Wunderground v.1.15,2013-02-01 12:10:00,
2013-02-01 05:16:00,30.7,22.4,30.19,SE,133,0.0,1.0,71,0.00,,,0.00,0,Wunderground v.1.15,2013-02-01 12:16:00,
2013-02-01 05:22:00,30.7,22.4,30.19,SE,133,0.0,0.0,71,0.00,,,0.00,0,Wunderground v.1.15,2013-02-01 12:22:00,
2013-02-01 05:28:00,30.7,22.7,30.19,SE,133,0.0,0.0,72,0.00,,,0.00,0,Wunderground v.1.15,2013-02-01 12:28:00,
2013-02-01 05:34:00,30.7,22.4,30.19,SE,133,0.0,0.0,71,0.00,,,0.00,0,Wunderground v.1.15,2013-02-01 12:34:00,
2013-02-01 05:40:00,30.7,22.7,30.19,SE,133,0.0,0.0,72,0.00,,,0.00,0,Wunderground v.1.15,2013-02-01 12:40:00,
2013-02-01 05:46:00,30.6,22.6,30.19,SE,133,0.0,0.0,72,0.00,,,0.00,0,Wunderground v.1.15,2013-02-01 12:46:00,
2013-02-01 05:52:00,30.6,22.3,30.18,SE,133,0.0,0.0,71,0.00,,,0.00,0,Wunderground v.1.15,2013-02-01 12:52:00,
2013-02-01 05:58:00,30.4,22.4,30.18,SE,133,1.0,3.0,72,0.00,,,0.00,0,Wunderground v.1.15,2013-02-01 12:58:00,
2013-02-01 06:04:00,30.1,21.8,30.18,SE,133,2.0,3.0,71,0.00,,,0.00,0,Wunderground v.1.15,2013-02-01 13:04:00,
2013-02-01 06:10:00,29.9,22.0,30.18,SE,133,3.0,3.0,72,0.00,,,0.00,0,Wunderground v.1.15,2013-02-01 13:10:00,
2013-02-01 06:16:00,29.9,22.0,30.18,SE,133,1.0,3.0,72,0.00,,,0.00,0,Wunderground v.1.15,2013-02-01 13:16:00,
2013-02-01 06:22:00,29.9,22.0,30.18,SE,133,0.0,0.0,72,0.00,,,0.00,0,Wunderground v.1.15,2013-02-01 13:22:00,
2013-02-01 06:28:00,29.9,22.0,30.19,SE,133,0.0,0.0,72,0.00,,,0.00,0,Wunderground v.1.15,2013-02-01 13:28:00,
2013-02-01 06:34:00,30.2,22.3,30.19,SE,133,0.0,1.0,72,0.00,,,0.00,0,Wunderground v.1.15,2013-02-01 13:34:00,
2013-02-01 06:40:00,30.8,22.5,30.19,SE,133,1.0,1.0,71,0.00,,,0.00,0,Wunderground v.1.15,2013-02-01 13:40:00,
2013-02-01 06:46:00,30.8,22.5,30.19,SE,133,1.0,2.0,71,0.00,,,0.00,0,Wunderground v.1.15,2013-02-01 13:46:00,
2013-02-01 06:52:00,30.6,22.0,30.19,SE,133,1.0,1.0,70,0.00,,,0.00,0,Wunderground v.1.15,2013-02-01 13:52:00,
2013-02-01 06:58:00,30.4,21.8,30.19,SE,133,0.0,3.0,70,0.00,,,0.00,0,Wunderground v.1.15,2013-02-01 13:58:00,
2013-02-01 07:04:00,30.3,21.7,30.19,SE,133,0.0,3.0,70,0.00,,,0.00,0,Wunderground v.1.15,2013-02-01 14:04:00,
2013-02-01 07:10:00,30.2,21.9,30.20,SE,133,0.0,1.0,71,0.00,,,0.00,0,Wunderground v.1.15,2013-02-01 14:10:00,
2013-02-01 07:16:00,30.4,22.4,30.20,SE,133,2.0,3.0,72,0.00,,,0.00,0,Wunderground v.1.15,2013-02-01 14:16:00,
2013-02-01 07:22:00,31.1,22.8,30.20,SE,133,1.0,2.0,71,0.00,,,0.00,0,Wunderground v.1.15,2013-02-01 14:22:00,
2013-02-01 07:28:00,31.3,23.0,30.20,SE,133,0.0,2.0,71,0.00,,,0.00,0,Wunderground v.1.15,2013-02-01 14:28:00,
2013-02-01 07:34:00,31.3,22.6,30.20,SE,133,0.0,0.0,70,0.00,,,0.00,5,Wunderground v.1.15,2013-02-01 14:34:00,
2013-02-01 07:40:00,31.4,23.4,30.21,SE,133,1.0,1.0,72,0.00,,,0.00,7,Wunderground v.1.15,2013-02-01 14:40:00,
2013-02-01 07:46:00,31.4,23.4,30.21,SE,133,0.0,1.0,72,0.00,,,0.00,9,Wunderground v.1.15,2013-02-01 14:46:00,
2013-02-01 07:52:00,31.0,22.7,30.21,SE,133,0.0,2.0,71,0.00,,,0.00,11,Wunderground v.1.15,2013-02-01 14:52:00,
2013-02-01 07:58:00,30.5,22.2,30.22,SE,133,1.0,2.0,71,0.00,,,0.00,12,Wunderground v.1.15,2013-02-01 14:58:00,
2013-02-01 08:04:00,30.3,22.7,30.22,SE,133,0.0,1.0,73,0.00,,,0.00,12,Wunderground v.1.15,2013-02-01 15:04:00,
2013-02-01 08:10:00,30.3,22.7,30.22,SE,133,0.0,3.0,73,0.00,,,0.00,14,Wunderground v.1.15,2013-02-01 15:10:00,
2013-02-01 08:16:00,30.1,22.2,30.23,SE,133,1.0,3.0,72,0.00,,,0.00,16,Wunderground v.1.15,2013-02-01 15:16:00,
2013-02-01 08:22:00,30.0,22.1,30.23,SE,133,0.0,0.0,72,0.00,,,0.00,16,Wunderground v.1.15,2013-02-01 15:22:00,
2013-02-01 08:28:00,30.2,22.3,30.22,SE,133,0.0,2.0,72,0.00,,,0.00,18,Wunderground v.1.15,2013-02-01 15:28:00,
2013-02-01 08:34:00,30.5,22.5,30.22,SE,133,0.0,1.0,72,0.00,,,0.00,19,Wunderground v.1.15,2013-02-01 15:34:00,
2013-02-01 08:40:00,30.9,22.9,30.23,SE,133,0.0,0.0,72,0.00,,,0.00,19,Wunderground v.1.15,2013-02-01 15:40:00,
2013-02-01 08:46:00,31.7,22.7,30.23,SE,133,0.0,0.0,69,0.00,,,0.00,25,Wunderground v.1.15,2013-02-01 15:46:00,
2013-02-01 08:52:00,32.3,22.6,30.23,SE,133,0.0,0.0,67,0.00,,,0.00,32,Wunderground v.1.15,2013-02-01 15:52:00,
2013-02-01 08:58:00,32.9,22.8,30.23,SE,133,0.0,0.0,66,0.00,,,0.00,23,Wunderground v.1.15,2013-02-01 15:58:00,
2013-02-01 09:04:00,33.4,22.5,30.23,SE,133,0.0,0.0,64,0.00,,,0.00,23,Wunderground v.1.15,2013-02-01 16:04:00,
2013-02-01 09:10:00,34.0,22.3,30.23,SE,133,0.0,0.0,62,0.00,,,0.00,25,Wunderground v.1.15,2013-02-01 16:10:00,
2013-02-01 09:16:00,34.7,23.0,30.23,SE,133,0.0,0.0,62,0.00,,,0.00,40,Wunderground v.1.15,2013-02-01 16:16:00,
2013-02-01 09:22:00,35.6,23.9,30.23,SE,133,0.0,0.0,62,0.00,,,0.00,25,Wunderground v.1.15,2013-02-01 16:22:00,
2013-02-01 09:28:00,36.5,23.9,30.23,SE,133,0.0,0.0,60,0.00,,,0.00,37,Wunderground v.1.15,2013-02-01 16:28:00,
2013-02-01 09:34:00,37.3,24.7,30.23,SE,133,0.0,0.0,60,0.00,,,0.00,26,Wunderground v.1.15,2013-02-01 16:34:00,
2013-02-01 09:40:00,38.0,26.1,30.22,SE,133,0.0,0.0,62,0.00,,,0.00,28,Wunderground v.1.15,2013-02-01 16:40:00,
2013-02-01 09:46:00,38.9,27.4,30.23,SE,133,0.0,2.0,63,0.00,,,0.00,26,Wunderground v.1.15,2013-02-01 16:46:00,
2013-02-01 09:52:00,39.7,27.3,30.23,SE,133,0.0,0.0,61,0.00,,,0.00,26,Wunderground v.1.15,2013-02-01 16:52:00,
2013-02-01 09:58:00,40.6,27.4,30.23,SE,133,0.0,0.0,59,0.00,,,0.00,28,Wunderground v.1.15,2013-02-01 16:58:00,
2013-02-01 10:04:00,41.3,27.2,30.23,SE,133,0.0,1.0,57,0.00,,,0.00,28,Wunderground v.1.15,2013-02-01 17:04:00,
2013-02-01 10:10:00,42.0,25.6,30.23,SE,133,0.0,2.0,52,0.00,,,0.00,26,Wunderground v.1.15,2013-02-01 17:10:00,
2013-02-01 10:16:00,43.0,25.6,30.23,SE,133,1.0,3.0,50,0.00,,,0.00,28,Wunderground v.1.15,2013-02-01 17:16:00,
2013-02-01 10:22:00,44.1,24.6,30.23,SE,133,1.0,2.0,46,0.00,,,0.00,28,Wunderground v.1.15,2013-02-01 17:22:00,
2013-02-01 10:28:00,44.9,25.3,30.23,ENE,68,1.0,2.0,46,0.00,,,0.00,134,Wunderground v.1.15,2013-02-01 17:28:00,
2013-02-01 10:34:00,46.3,26.1,30.24,ENE,71,1.0,3.0,45,0.00,,,0.00,153,Wunderground v.1.15,2013-02-01 17:34:00,
2013-02-01 10:40:00,48.1,26.6,30.24,ENE,73,1.0,1.0,43,0.00,,,0.00,548,Wunderground v.1.15,2013-02-01 17:40:00,
2013-02-01 10:46:00,49.0,25.7,30.23,ENE,71,1.0,1.0,40,0.00,,,0.00,557,Wunderground v.1.15,2013-02-01 17:46:00,
2013-02-01 10:52:00,49.7,25.1,30.24,East,98,1.0,5.0,38,0.00,,,0.00,566,Wunderground v.1.15,2013-02-01 17:52:00,
2013-02-01 10:58:00,50.2,25.5,30.24,East,85,1.0,5.0,38,0.00,,,0.00,577,Wunderground v.1.15,2013-02-01 17:58:00,
2013-02-01 11:04:00,50.7,24.7,30.24,ENE,61,2.0,5.0,36,0.00,,,0.00,591,Wunderground v.1.15,2013-02-01 18:04:00,
2013-02-01 11:10:00,51.2,24.5,30.24,ENE,61,1.0,2.0,35,0.00,,,0.00,605,Wunderground v.1.15,2013-02-01 18:10:00,
2013-02-01 11:16:00,51.5,24.7,30.24,ENE,61,1.0,2.0,35,0.00,,,0.00,615,Wunderground v.1.15,2013-02-01 18:16:00,
2013-02-01 11:22:00,52.2,23.9,30.24,SE,132,1.0,2.0,33,0.00,,,0.00,629,Wunderground v.1.15,2013-02-01 18:22:00,
2013-02-01 11:28:00,53.1,25.4,30.24,East,89,1.0,2.0,34,0.00,,,0.00,645,Wunderground v.1.15,2013-02-01 18:28:00,
2013-02-01 11:34:00,53.5,23.6,30.23,East,82,0.0,1.0,31,0.00,,,0.00,654,Wunderground v.1.15,2013-02-01 18:34:00,
2013-02-01 11:40:00,54.3,23.5,30.23,ENE,74,1.0,1.0,30,0.00,,,0.00,663,Wunderground v.1.15,2013-02-01 18:40:00,
2013-02-01 11:46:00,54.6,23.7,30.23,East,79,2.0,3.0,30,0.00,,,0.00,647,Wunderground v.1.15,2013-02-01 18:46:00,
2013-02-01 11:52:00,55.6,21.2,30.22,ENE,66,2.0,5.0,26,0.00,,,0.00,682,Wunderground v.1.15,2013-02-01 18:52:00,
2013-02-01 11:58:00,56.1,19.8,30.22,NE,53,3.0,6.0,24,0.00,,,0.00,691,Wunderground v.1.15,2013-02-01 18:58:00,
2013-02-01 12:04:00,56.5,20.1,30.22,ENE,76,3.0,3.0,24,0.00,,,0.00,698,Wunderground v.1.15,2013-02-01 19:04:00,
2013-02-01 12:10:00,57.3,21.7,30.22,NNE,26,2.0,2.0,25,0.00,,,0.00,705,Wunderground v.1.15,2013-02-01 19:10:00,
2013-02-01 12:16:00,57.7,19.1,30.22,East,96,2.0,6.0,22,0.00,,,0.00,710,Wunderground v.1.15,2013-02-01 19:16:00,
2013-02-01 12:22:00,57.6,19.0,30.22,ENE,73,2.0,3.0,22,0.00,,,0.00,715,Wunderground v.1.15,2013-02-01 19:22:00,
2013-02-01 12:28:00,58.0,22.3,30.21,ENE,75,2.0,3.0,25,0.00,,,0.00,721,Wunderground v.1.15,2013-02-01 19:28:00,
2013-02-01 12:34:00,58.5,19.7,30.21,NE,45,2.0,4.0,22,0.00,,,0.00,724,Wunderground v.1.15,2013-02-01 19:34:00,
2013-02-01 12:40:00,58.9,17.8,30.21,ENE,73,2.0,2.0,20,0.00,,,0.00,729,Wunderground v.1.15,2013-02-01 19:40:00,
2013-02-01 12:46:00,58.9,17.8,30.21,NE,44,1.0,2.0,20,0.00,,,0.00,731,Wunderground v.1.15,2013-02-01 19:46:00,
2013-02-01 12:52:00,58.8,16.6,30.20,NE,51,4.0,6.0,19,0.00,,,0.00,735,Wunderground v.1.15,2013-02-01 19:52:00,
2013-02-01 12:58:00,59.1,15.6,30.20,ENE,61,4.0,6.0,18,0.00,,,0.00,733,Wunderground v.1.15,2013-02-01 19:58:00,
2013-02-01 13:04:00,59.7,18.5,30.20,NE,52,3.0,5.0,20,0.00,,,0.00,738,Wunderground v.1.15,2013-02-01 20:04:00,
2013-02-01 13:10:00,59.8,14.8,30.20,NE,49,3.0,3.0,17,0.00,,,0.00,737,Wunderground v.1.15,2013-02-01 20:10:00,
2013-02-01 13:16:00,59.8,17.4,30.19,North,350,3.0,6.0,19,0.00,,,0.00,737,Wunderground v.1.15,2013-02-01 20:16:00,
2013-02-01 13:22:00,60.7,20.5,30.19,North,360,3.0,6.0,21,0.00,,,0.00,737,Wunderground v.1.15,2013-02-01 20:22:00,
2013-02-01 13:28:00,60.7,16.9,30.19,NNE,14,3.0,6.0,18,0.00,,,0.00,735,Wunderground v.1.15,2013-02-01 20:28:00,
2013-02-01 13:34:00,60.7,18.1,30.19,North,351,2.0,3.0,19,0.00,,,0.00,733,Wunderground v.1.15,2013-02-01 20:34:00,
2013-02-01 13:40:00,61.3,17.4,30.19,NE,50,1.0,6.0,18,0.00,,,0.00,728,Wunderground v.1.15,2013-02-01 20:40:00,
2013-02-01 13:46:00,61.9,17.9,30.18,NE,49,3.0,7.0,18,0.00,,,0.00,729,Wunderground v.1.15,2013-02-01 20:46:00,
2013-02-01 13:52:00,61.5,13.4,30.18,ENE,57,4.0,9.0,15,0.00,,,0.00,724,Wunderground v.1.15,2013-02-01 20:52:00,
2013-02-01 13:58:00,61.9,15.1,30.18,ESE,108,3.0,9.0,16,0.00,,,0.00,703,Wunderground v.1.15,2013-02-01 20:58:00,
2013-02-01 14:04:00,61.2,9.9,30.18,ENE,67,4.0,7.0,13,0.00,,,0.00,714,Wunderground v.1.15,2013-02-01 21:04:00,
2013-02-01 14:10:00,61.5,14.8,30.18,North,351,4.0,4.0,16,0.00,,,0.00,701,Wunderground v.1.15,2013-02-01 21:10:00,
2013-02-01 14:16:00,61.4,14.7,30.18,NNE,30,2.0,5.0,16,0.00,,,0.00,696,Wunderground v.1.15,2013-02-01 21:16:00,
2013-02-01 14:22:00,61.9,19.1,30.18,NNE,26,3.0,7.0,19,0.00,,,0.00,680,Wunderground v.1.15,2013-02-01 21:22:00,
2013-02-01 14:28:00,62.0,18.0,30.18,NE,42,3.0,7.0,18,0.00,,,0.00,680,Wunderground v.1.15,2013-02-01 21:28:00,
2013-02-01 14:34:00,62.0,19.2,30.18,North,355,3.0,3.0,19,0.00,,,0.00,663,Wunderground v.1.15,2013-02-01 21:34:00,
2013-02-01 14:40:00,61.9,17.9,30.18,NE,46,2.0,4.0,18,0.00,,,0.00,659,Wunderground v.1.15,2013-02-01 21:40:00,
2013-02-01 14:46:00,62.2,18.1,30.18,ENE,69,2.0,4.0,18,0.00,,,0.00,643,Wunderground v.1.15,2013-02-01 21:46:00,
2013-02-01 14:52:00,62.0,18.0,30.18,NNE,17,2.0,4.0,18,0.00,,,0.00,635,Wunderground v.1.15,2013-02-01 21:52:00,
2013-02-01 14:58:00,62.4,19.5,30.18,SW,230,1.0,8.0,19,0.00,,,0.00,624,Wunderground v.1.15,2013-02-01 21:58:00,
2013-02-01 15:04:00,62.2,18.1,30.17,ENE,62,2.0,8.0,18,0.00,,,0.00,612,Wunderground v.1.15,2013-02-01 22:04:00,
2013-02-01 15:10:00,61.4,17.5,30.17,ENE,67,3.0,3.0,18,0.00,,,0.00,596,Wunderground v.1.15,2013-02-01 22:10:00,
2013-02-01 15:16:00,62.0,19.2,30.17,NNW,344,3.0,3.0,19,0.00,,,0.00,584,Wunderground v.1.15,2013-02-01 22:16:00,
2013-02-01 15:22:00,62.7,19.8,30.17,NNE,15,2.0,5.0,19,0.00,,,0.00,543,Wunderground v.1.15,2013-02-01 22:22:00,
2013-02-01 15:28:00,62.0,18.0,30.17,North,10,2.0,5.0,18,0.00,,,0.00,564,Wunderground v.1.15,2013-02-01 22:28:00,
2013-02-01 15:34:00,61.6,18.9,30.17,NNE,27,2.0,2.0,19,0.00,,,0.00,529,Wunderground v.1.15,2013-02-01 22:34:00,
2013-02-01 15:40:00,61.8,19.0,30.16,NNE,25,2.0,2.0,19,0.00,,,0.00,517,Wunderground v.1.15,2013-02-01 22:40:00,
2013-02-01 15:46:00,62.2,20.6,30.16,NE,37,2.0,2.0,20,0.00,,,0.00,482,Wunderground v.1.15,2013-02-01 22:46:00,
2013-02-01 15:52:00,62.3,19.5,30.16,NE,39,1.0,2.0,19,0.00,,,0.00,492,Wunderground v.1.15,2013-02-01 22:52:00,
2013-02-01 15:58:00,61.8,21.4,30.16,ENE,64,1.0,3.0,21,0.00,,,0.00,462,Wunderground v.1.15,2013-02-01 22:58:00,
2013-02-01 16:04:00,62.1,20.5,30.16,ENE,74,1.0,3.0,20,0.00,,,0.00,429,Wunderground v.1.15,2013-02-01 23:04:00,
2013-02-01 16:10:00,61.8,21.4,30.17,NE,41,1.0,5.0,21,0.00,,,0.00,434,Wunderground v.1.15,2013-02-01 23:10:00,
2013-02-01 16:16:00,61.6,20.1,30.17,ENE,67,2.0,5.0,20,0.00,,,0.00,417,Wunderground v.1.15,2013-02-01 23:16:00,
2013-02-01 16:22:00,61.4,21.1,30.17,ENE,65,1.0,4.0,21,0.00,,,0.00,387,Wunderground v.1.15,2013-02-01 23:22:00,
2013-02-01 16:28:00,61.5,21.2,30.16,SE,127,2.0,4.0,21,0.00,,,0.00,339,Wunderground v.1.15,2013-02-01 23:28:00,
2013-02-01 16:34:00,61.8,20.3,30.16,ESE,112,1.0,2.0,20,0.00,,,0.00,301,Wunderground v.1.15,2013-02-01 23:34:00,
2013-02-01 16:40:00,61.5,21.2,30.16,ESE,102,1.0,2.0,21,0.00,,,0.00,274,Wunderground v.1.15,2013-02-01 23:40:00,
2013-02-01 16:46:00,61.1,20.8,30.16,NE,34,1.0,2.0,21,0.00,,,0.00,186,Wunderground v.1.15,2013-02-01 23:46:00,
2013-02-01 16:52:00,60.4,20.2,30.16,NE,34,1.0,1.0,21,0.00,,,0.00,241,Wunderground v.1.15,2013-02-01 23:52:00,
2013-02-01 16:58:00,60.2,21.2,30.16,NE,34,1.0,3.0,22,0.00,,,0.00,232,Wunderground v.1.15,2013-02-01 23:58:00,
2013-02-01 17:04:00,60.0,21.0,30.16,NE,34,1.0,2.0,22,0.00,,,0.00,174,Wunderground v.1.15,2013-02-02 00:04:00,
2013-02-01 17:10:00,59.7,22.8,30.16,NE,34,0.0,0.0,24,0.00,,,0.00,160,Wunderground v.1.15,2013-02-02 00:10:00,
2013-02-01 17:16:00,59.5,22.6,30.16,NE,34,0.0,0.0,24,0.00,,,0.00,91,Wunderground v.1.15,2013-02-02 00:16:00,
2013-02-01 17:22:00,59.0,24.1,30.16,NE,34,0.0,0.0,26,0.00,,,0.00,134,Wunderground v.1.15,2013-02-02 00:22:00,
2013-02-01 17:28:00,58.7,24.8,30.16,NE,34,0.0,0.0,27,0.00,,,0.00,104,Wunderground v.1.15,2013-02-02 00:28:00,
2013-02-01 17:34:00,58.5,23.7,30.16,NE,34,0.0,1.0,26,0.00,,,0.00,62,Wunderground v.1.15,2013-02-02 00:34:00,
2013-02-01 17:40:00,58.2,23.4,30.16,NE,34,0.0,0.0,26,0.00,,,0.00,47,Wunderground v.1.15,2013-02-02 00:40:00,
2013-02-01 17:46:00,57.9,24.1,30.16,NE,34,0.0,0.0,27,0.00,,,0.00,21,Wunderground v.1.15,2013-02-02 00:46:00,
2013-02-01 17:52:00,58.0,25.9,30.16,NE,34,0.0,0.0,29,0.00,,,0.00,12,Wunderground v.1.15,2013-02-02 00:52:00,
2013-02-01 17:58:00,57.4,24.5,30.17,NNE,32,1.0,3.0,28,0.00,,,0.00,0,Wunderground v.1.15,2013-02-02 00:58:00,
2013-02-01 18:04:00,56.4,23.7,30.17,NNE,32,1.0,3.0,28,0.00,,,0.00,0,Wunderground v.1.15,2013-02-02 01:04:00,
2013-02-01 18:10:00,55.2,24.3,30.17,NNE,22,1.0,1.0,30,0.00,,,0.00,0,Wunderground v.1.15,2013-02-02 01:10:00,
2013-02-01 18:16:00,54.2,24.2,30.17,WNW,283,1.0,2.0,31,0.00,,,0.00,0,Wunderground v.1.15,2013-02-02 01:16:00,
2013-02-01 18:22:00,53.5,25.1,30.17,WSW,253,1.0,2.0,33,0.00,,,0.00,0,Wunderground v.1.15,2013-02-02 01:22:00,
2013-02-01 18:28:00,52.8,25.9,30.18,WSW,253,1.0,2.0,35,0.00,,,0.00,0,Wunderground v.1.15,2013-02-02 01:28:00,
2013-02-01 18:34:00,52.0,25.2,30.18,WSW,253,0.0,1.0,35,0.00,,,0.00,0,Wunderground v.1.15,2013-02-02 01:34:00,
2013-02-01 18:40:00,51.2,25.8,30.18,WSW,253,0.0,0.0,37,0.00,,,0.00,0,Wunderground v.1.15,2013-02-02 01:40:00,
2013-02-01 18:46:00,50.3,25.6,30.19,WSW,253,0.0,0.0,38,0.00,,,0.00,0,Wunderground v.1.15,2013-02-02 01:46:00,
2013-02-01 18:52:00,49.5,26.1,30.19,WSW,253,0.0,0.0,40,0.00,,,0.00,0,Wunderground v.1.15,2013-02-02 01:52:00,
2013-02-01 18:58:00,48.4,26.3,30.20,WSW,253,0.0,0.0,42,0.00,,,0.00,0,Wunderground v.1.15,2013-02-02 01:58:00,
2013-02-01 19:04:00,47.4,25.4,30.19,WSW,253,0.0,0.0,42,0.00,,,0.00,0,Wunderground v.1.15,2013-02-02 02:04:00,
2013-02-01 19:10:00,46.7,24.8,30.20,WSW,253,0.0,1.0,42,0.00,,,0.00,0,Wunderground v.1.15,2013-02-02 02:10:00,
2013-02-01 19:16:00,46.5,25.2,30.20,SW,236,1.0,3.0,43,0.00,,,0.00,0,Wunderground v.1.15,2013-02-02 02:16:00,
2013-02-01 19:22:00,46.7,25.4,30.21,SW,236,1.0,1.0,43,0.00,,,0.00,0,Wunderground v.1.15,2013-02-02 02:22:00,
2013-02-01 19:28:00,46.8,24.9,30.21,SW,236,0.0,1.0,42,0.00,,,0.00,0,Wunderground v.1.15,2013-02-02 02:28:00,
2013-02-01 19:34:00,46.8,24.9,30.20,SW,236,1.0,2.0,42,0.00,,,0.00,0,Wunderground v.1.15,2013-02-02 02:34:00,
2013-02-01 19:40:00,46.8,24.9,30.20,SW,236,1.0,1.0,42,0.00,,,0.00,0,Wunderground v.1.15,2013-02-02 02:40:00,
2013-02-01 19:46:00,46.9,25.0,30.21,SW,236,0.0,1.0,42,0.00,,,0.00,0,Wunderground v.1.15,2013-02-02 02:46:00,
2013-02-01 19:52:00,47.0,25.1,30.21,SW,236,0.0,0.0,42,0.00,,,0.00,0,Wunderground v.1.15,2013-02-02 02:52:00,
2013-02-01 19:58:00,46.9,25.5,30.21,SW,236,0.0,0.0,43,0.00,,,0.00,0,Wunderground v.1.15,2013-02-02 02:58:00,
2013-02-01 20:04:00,46.8,25.5,30.20,SW,236,0.0,0.0,43,0.00,,,0.00,0,Wunderground v.1.15,2013-02-02 03:04:00,
2013-02-01 20:10:00,46.6,25.3,30.21,SW,236,0.0,0.0,43,0.00,,,0.00,0,Wunderground v.1.15,2013-02-02 03:10:00,
2013-02-01 20:16:00,46.5,25.2,30.21,SW,227,0.0,2.0,43,0.00,,,0.00,0,Wunderground v.1.15,2013-02-02 03:16:00,
2013-02-01 20:22:00,46.5,25.2,30.21,SW,228,1.0,1.0,43,0.00,,,0.00,0,Wunderground v.1.15,2013-02-02 03:22:00,
2013-02-01 20:28:00,46.5,25.7,30.21,SW,227,0.0,3.0,44,0.00,,,0.00,0,Wunderground v.1.15,2013-02-02 03:28:00,
2013-02-01 20:34:00,46.5,25.7,30.22,SW,227,0.0,0.0,44,0.00,,,0.00,0,Wunderground v.1.15,2013-02-02 03:34:00,
2013-02-01 20:40:00,46.4,25.6,30.22,SW,228,0.0,0.0,44,0.00,,,0.00,0,Wunderground v.1.15,2013-02-02 03:40:00,
2013-02-01 20:46:00,46.4,25.6,30.22,SW,228,0.0,2.0,44,0.00,,,0.00,0,Wunderground v.1.15,2013-02-02 03:46:00,
2013-02-01 20:52:00,46.4,25.1,30.22,SW,228,1.0,1.0,43,0.00,,,0.00,0,Wunderground v.1.15,2013-02-02 03:52:00,
2013-02-01 20:58:00,46.3,25.0,30.22,SW,228,1.0,1.0,43,0.00,,,0.00,0,Wunderground v.1.15,2013-02-02 03:58:00,
2013-02-01 21:04:00,46.1,25.4,30.23,SW,228,1.0,1.0,44,0.00,,,0.00,0,Wunderground v.1.15,2013-02-02 04:04:00,
2013-02-01 21:10:00,45.3,25.2,30.23,NNE,17,1.0,3.0,45,0.00,,,0.00,0,Wunderground v.1.15,2013-02-02 04:10:00,
2013-02-01 21:16:00,44.7,25.2,30.23,NNE,17,2.0,3.0,46,0.00,,,0.00,0,Wunderground v.1.15,2013-02-02 04:16:00,
2013-02-01 21:22:00,44.1,25.1,30.23,North,5,0.0,1.0,47,0.00,,,0.00,0,Wunderground v.1.15,2013-02-02 04:22:00,
2013-02-01 21:28:00,43.4,25.0,30.23,North,5,1.0,1.0,48,0.00,,,0.00,0,Wunderground v.1.15,2013-02-02 04:28:00,
2013-02-01 21:34:00,43.2,25.3,30.23,North,5,0.0,1.0,49,0.00,,,0.00,0,Wunderground v.1.15,2013-02-02 04:34:00,
2013-02-01 21:40:00,43.3,25.4,30.23,North,5,0.0,0.0,49,0.00,,,0.00,0,Wunderground v.1.15,2013-02-02 04:40:00,
2013-02-01 21:46:00,43.5,25.1,30.24,North,5,0.0,1.0,48,0.00,,,0.00,0,Wunderground v.1.15,2013-02-02 04:46:00,
2013-02-01 21:52:00,43.6,26.2,30.23,North,5,0.0,0.0,50,0.00,,,0.00,0,Wunderground v.1.15,2013-02-02 04:52:00,
2013-02-01 21:58:00,43.5,26.1,30.23,North,5,0.0,0.0,50,0.00,,,0.00,0,Wunderground v.1.15,2013-02-02 04:58:00,
2013-02-01 22:00:00,43.1,25.7,30.24,North,5,0.0,3.0,50,0.00,,,0.00,0,Wunderground v.1.15,2013-02-02 05:00:00,
2013-02-01 22:02:00,42.6,25.2,30.24,North,5,1.0,3.0,50,0.00,,,0.00,0,Wunderground v.1.15,2013-02-02 05:02:00,
2013-02-01 22:04:00,42.1,25.3,30.24,North,5,1.0,3.0,51,0.00,,,0.00,0,Wunderground v.1.15,2013-02-02 05:04:00,
2013-02-01 22:10:00,41.0,24.7,30.24,North,5,1.0,1.0,52,0.00,,,0.00,0,Wunderground v.1.15,2013-02-02 05:10:00,
2013-02-01 22:16:00,40.7,24.9,30.24,North,5,0.0,1.0,53,0.00,,,0.00,0,Wunderground v.1.15,2013-02-02 05:16:00,
2013-02-01 22:22:00,40.6,24.3,30.24,North,5,0.0,2.0,52,0.00,,,0.00,0,Wunderground v.1.15,2013-02-02 05:22:00,
2013-02-01 22:28:00,40.7,24.9,30.24,North,5,0.0,2.0,53,0.00,,,0.00,0,Wunderground v.1.15,2013-02-02 05:28:00,
2013-02-01 22:34:00,41.1,24.8,30.24,North,5,0.0,0.0,52,0.00,,,0.00,0,Wunderground v.1.15,2013-02-02 05:34:00,
2013-02-01 22:40:00,41.8,25.0,30.24,North,5,0.0,0.0,51,0.00,,,0.00,0,Wunderground v.1.15,2013-02-02 05:40:00,
2013-02-01 22:46:00,42.2,25.3,30.24,North,5,0.0,0.0,51,0.00,,,0.00,0,Wunderground v.1.15,2013-02-02 05:46:00,
2013-02-01 22:52:00,42.2,25.8,30.24,North,5,0.0,0.0,52,0.00,,,0.00,0,Wunderground v.1.15,2013-02-02 05:52:00,
2013-02-01 22:58:00,42.1,25.3,30.24,North,5,0.0,3.0,51,0.00,,,0.00,0,Wunderground v.1.15,2013-02-02 05:58:00,
2013-02-01 23:04:00,42.1,25.7,30.24,North,5,0.0,3.0,52,0.00,,,0.00,0,Wunderground v.1.15,2013-02-02 06:04:00,
2013-02-01 23:10:00,42.0,25.6,30.24,North,5,0.0,0.0,52,0.00,,,0.00,0,Wunderground v.1.15,2013-02-02 06:10:00,
2013-02-01 23:16:00,41.6,25.7,30.25,North,5,0.0,3.0,53,0.00,,,0.00,0,Wunderground v.1.15,2013-02-02 06:16:00,
2013-02-01 23:22:00,40.4,25.5,30.25,North,5,2.0,2.0,55,0.00,,,0.00,0,Wunderground v.1.15,2013-02-02 06:22:00,
2013-02-01 23:28:00,38.9,24.9,30.25,North,5,2.0,3.0,57,0.00,,,0.00,0,Wunderground v.1.15,2013-02-02 06:28:00,
2013-02-01 23:34:00,38.4,25.3,30.25,North,5,1.0,2.0,59,0.00,,,0.00,0,Wunderground v.1.15,2013-02-02 06:34:00,
2013-02-01 23:40:00,38.1,25.4,30.25,North,5,0.0,0.0,60,0.00,,,0.00,0,Wunderground v.1.15,2013-02-02 06:40:00,
2013-02-01 23:46:00,37.6,25.4,30.25,North,5,0.0,0.0,61,0.00,,,0.00,0,Wunderground v.1.15,2013-02-02 06:46:00,
2013-02-01 23:52:00,37.2,25.4,30.25,North,5,0.0,0.0,62,0.00,,,0.00,0,Wunderground v.1.15,2013-02-02 06:52:00,
2013-02-01 23:58:00,37.1,25.7,30.25,North,5,0.0,0.0,63,0.00,,,0.00,0,Wunderground v.1.15,2013-02-02 06:58:00,